Location: *
(44.3683°N, 6.6958°E)
Time: 01:57:04
(UTC+00:00)

STARLINK-57 - Pass Details

Date: 14 October 2019
Orbit: 548 x 551 km, 53.0° (Epoch: 14 November)

Event Time Altitude Azimuth Distance (km) Brightness Sun altitude
Rises 18:02:20 0° 247° (WSW) 2,708 8.4 -13.4°
Reaches altitude 10° 18:04:35 10° 251° (WSW) 1,817 7.4 -13.8°
Maximum altitude 18:08:40 58° 331° (NNW) 643 4.1 -14.6°
Enters shadow 18:11:41 17° 48° (NE) 1,417 5.3 -15.1°
